Crooked Creek Research Lab Weather observations

Data are for 10 minute period ending at time listed.
 Day   Time    Ave.   Ave.  Ave.  Vector   Max.   Stn.    Total    Solar   Ave.   Snow 
  of    of     Air    Rel.  Wind   Wind    Wind   Baro.  Precip.   Rad.    Soil   Depth
Year   Day     Temp.  Hum.  Speed  Dir.    Gust   Pres.                    Temp.       
2015   (PST)    F      %     mph   deg.    mph     mb.     in.     W/m2     F      in. 
---------------------------------------------------------------------------------------  
 246    9:00   53.5    20    4.0   214     10.0   700.9    0.00     649    999.0    -0.6
 246    9:10   53.6    20    5.3   232     11.5   700.9    0.00     675    999.0    -0.7
 246    9:20   53.7    18    4.9   229     10.2   700.9    0.00     700    999.0    -0.6
 246    9:30   54.0    18    6.4   233     14.5   701.0    0.00     722    999.0    -0.5
 246    9:40   54.6    18    4.7   225     11.5   701.1    0.00     744    999.0    -0.6
 246    9:50   54.7    16    5.1   226     13.1   701.2    0.00     765    999.0    -0.6
 246   10:00   54.3    16    6.1   227     12.6   701.0    0.00     784    999.0    -0.6
 246   10:10   54.9    15    6.7   229     14.7   701.0    0.00     800    999.0    -0.5
 246   10:20   55.1    15    5.5   232     16.0   701.0    0.00     815    999.0    -0.5
 246   10:30   55.7    14    6.5   220     13.5   701.0    0.00     830    999.0    -0.6
 246   10:40   55.6    16    5.0   206     16.1   700.9    0.00     842    999.0    -0.6
 246   10:50   57.5    16    4.8   184     14.5   701.0    0.00     853    999.0    -0.6
 246   11:00   56.7    17    5.3   168     18.4   700.9    0.00     861    999.0    -0.7
 246   11:10   56.4    17    6.0   218     17.1   700.8    0.00     867    999.0    -0.6
 246   11:20   56.9    17    6.4   226     13.8   700.8    0.00     874    999.0    -0.5
 246   11:30   57.1    16    7.8   240     18.9   700.8    0.00     878    999.0    -0.6
 246   11:40   57.2    15    6.9   229     17.7   700.7    0.00     880    999.0    -0.5
 246   11:50   57.4    16    6.9   237     15.8   700.7    0.00     880    999.0    -0.4
 246   12:00   57.3    16    9.1   240     18.0   700.7    0.00     879    999.0    -0.6
 246   12:10   57.4    16    6.8   227     15.6   700.7    0.00     875    999.0    -0.6
 246   12:20   57.9    16    6.2   230     17.8   700.5    0.00     870    999.0    -0.5
 246   12:30   58.5    17    6.5   236     18.0   700.7    0.00     864    999.0    -0.6
 246   12:40   58.6    17    6.8   250     17.1   700.5    0.00     859    999.0    -0.5
 246   12:50   57.9    18    8.5   259     15.6   700.5    0.00     850    999.0    -0.5
 246   13:00   58.3    18    8.3   258     15.1   700.5    0.00     838    999.0    -0.5
 246   13:10   58.5    17    7.2   247     15.3   700.5    0.00     831    999.0    -0.5
 246   13:20   58.2    18    8.0   263     15.2   700.4    0.00     838    999.0    -0.5
 246   13:30   59.2    16    8.5   202     17.3   700.3    0.00     833    999.0    -0.6
 246   13:40   59.2    16    8.5   249     16.5   700.4    0.00     782    999.0    -0.5
 246   13:50   58.4    17    7.6   261     17.3   700.3    0.00     588    999.0    -0.5
 246   14:00   59.0    17    7.2   248     17.3   700.2    0.00     768    999.0    -0.4
 246   14:10   59.7    16    6.4   213     20.4   700.2    0.00     616    999.0    -0.6
 246   14:20   58.8    18    6.2   156     14.0   700.2    0.00     465    999.0    -0.6
 246   14:30   58.1    18    5.7   167     16.6   700.0    0.00     536    999.0    -0.5
 246   14:40   59.2    18    5.8   212     20.0   699.9    0.00     508    999.0    -0.5
 246   14:50   58.7    18    7.1   230     19.2   699.8    0.00     518    999.0    -0.6
 246   15:00   58.5    18    7.3   232     19.2   699.9    0.00     518    999.0    -0.6
 246   15:10   59.3    18    5.0   194     18.6   699.8    0.00     539    999.0    -0.6
 246   15:20   59.6    17    5.2   169     12.9   699.7    0.00     419    999.0    -0.6
 246   15:30   58.4    18    6.1   135     13.2   699.5    0.00     391    999.0    -0.6
 246   15:40   59.4    18    4.7   147     10.9   699.5    0.00     438    999.0    -0.6
 246   15:50   59.6    18    3.8   167     11.0   699.5    0.00     399    999.0    -0.7
 246   16:00   58.8    20    5.0   168     13.8   699.5    0.00     372    999.0    -0.6
 246   16:10   58.1    21    4.1   167     10.8   699.5    0.00     343    999.0    -0.6
 246   16:20   58.3    20    4.5   157     10.2   699.6    0.00     311    999.0    -0.7
 246   16:30   58.3    19    4.4   160     14.2   699.4    0.00     281    999.0    -0.7
 246   16:40   57.4    21    4.6   147     12.3   699.4    0.00     252    999.0    -0.7
 246   16:50   57.3    20    3.7   140      9.5   699.3    0.00     220    999.0    -0.6
 246   17:00   57.6    20    4.0   131      9.2   699.3    0.00     186    999.0    -0.7
 246   17:10   57.6    19    4.4   186     15.9   699.2    0.00     154    999.0    -0.7
 246   17:20   57.0    20    3.2   157      9.6   699.3    0.00     123    999.0    -0.7
 246   17:30   55.9    21    4.5   222     15.1   699.2    0.00      48    999.0    -0.7
 246   17:40   54.7    22    5.4   220     14.5   699.2    0.00      38    999.0    -0.7
 246   17:50   54.2    22    3.5   196     11.8   699.2    0.00      30    999.0    -0.7
 246   18:00   53.7    24    2.3   174      8.0   699.1    0.00      22    999.0    -0.7
 246   18:10   52.9    25    3.3   154      8.6   699.1    0.00      13    999.0    -0.6
 246   18:20   52.3    26    3.7   132      7.4   699.0    0.00       6    999.0    -0.6
 246   18:30   51.5    26    3.1   135      7.8   699.0    0.00       2    999.0    -0.6
 246   18:40   50.9    27    1.6   211      5.6   699.0    0.00       0    999.0    -0.6
 246   18:50   50.4    28    2.2   174      5.0   699.0    0.00       0    999.0    -0.6
 246   19:00   50.2    28    2.0   180      8.3   699.0    0.00       0    999.0    -0.6
 246   19:10   50.1    28    2.3   196      6.0   699.1    0.00       0    999.0    -0.6
 246   19:20   49.9    28    3.1   149      7.3   699.1    0.00       0    999.0    -0.6
 246   19:30   49.3    29    4.9   124      8.5   699.2    0.00       0    999.0    -0.6
 246   19:40   48.7    30    5.2   122      9.4   699.4    0.00       0    999.0    -0.6
 246   19:50   48.4    30    4.8   121      8.3   699.4    0.00       0    999.0    -0.6
 246   20:00   47.9    31    3.1   137      6.1   699.4    0.00       0    999.0    -0.6
 246   20:10   47.6    31    3.3   173      7.1   699.4    0.00       0    999.0    -0.6
 246   20:20   47.3    31    2.1   186      5.6   699.5    0.00       0    999.0    -0.7
 246   20:30   46.1    32    2.2   209      3.7   699.5    0.00       0    999.0    -0.6
 246   20:40   46.0    32    3.2   224      5.0   699.5    0.00       0    999.0    -0.6
 246   20:50   45.7    33    2.5   217      4.1   699.5    0.00       0    999.0    -0.6
 246   21:00   45.4    33    2.2   209      4.0   699.4    0.00       0    999.0    -0.7
 246   21:10   45.0    34    2.0   200      4.4   699.4    0.00       0    999.0    -0.7
 246   21:20   43.2    36    1.9   221      4.7   699.4    0.00       0    999.0    -0.7
 246   21:30   42.0    37    0.9   156      2.0   699.4    0.00       0    999.0    -0.7
 246   21:40   41.1    38    0.2   160      1.2   699.3    0.00       0    999.0    -0.6
 246   21:50   40.4    39    1.3   144      3.1   699.3    0.00       0    999.0    -0.7
 246   22:00   38.4    41    0.0   181      0.7   699.3    0.00       0    999.0    -0.6
 246   22:10   37.5    42    0.1   235      1.4   699.3    0.00       0    999.0    -0.7
 246   22:20   36.7    43    0.7   109      2.4   699.3    0.00       0    999.0    -0.6
 246   22:30   36.9    44    0.3   109      1.8   699.2    0.00       0    999.0    -0.6
 246   22:40   36.4    45    0.2   109      1.3   699.2    0.00       0    999.0    -0.6
 246   22:50   36.7    45    1.2   123      2.6   699.0    0.00       0    999.0    -0.6
 246   23:00   36.2    45    0.8   130      2.3   699.0    0.00       0    999.0    -0.7
 246   23:10   35.0    47    1.2   131      2.4   699.2    0.00       0    999.0    -0.6
 246   23:20   34.9    48    0.1   126      0.7   699.1    0.00       0    999.0    -0.6
 246   23:30   35.0    49    0.2   125      1.5   699.1    0.00       0    999.0    -0.5
 246   23:40   35.1    48    0.5   131      2.0   699.1    0.00       0    999.0    -0.8
 246   23:50   34.0    50    0.1   196      0.7   698.9    0.00       0    999.0    -0.5
 247    0:00   33.4    51    0.0   196      0.5   699.0    0.00       0    999.0    -0.5
 247    0:10   32.9    53    0.0   193      0.5   698.9    0.00       0    999.0    -0.5
 247    0:20   33.3    52    0.2   155      1.8   698.8    0.00       0    999.0    -0.6
 247    0:30   32.8    54    0.0   157      0.9   698.7    0.00       0    999.0    -0.5
 247    0:40   32.7    53    0.3   214      1.6   698.7    0.00       0    999.0    -0.6
 247    0:50   33.4    53    0.8   149      2.4   698.5    0.00       0    999.0    -0.5
 247    1:00   35.6    51    1.1   155      2.3   698.4    0.00       0    999.0    -0.5
 247    1:10   37.4    47    1.3   160      3.1   698.3    0.00       0    999.0    -0.6
 247    1:20   38.8    45    1.3   143      2.7   698.3    0.00       0    999.0    -0.6
 247    1:30   39.1    44    1.8   193      3.5   698.2    0.00       0    999.0    -0.5
 247    1:40   39.5    44    1.4   200      4.5   698.0    0.00       0    999.0    -0.6
 247    1:50   39.4    44    1.2   174      3.1   698.0    0.00       0    999.0    -0.5
 247    2:00   39.4    44    1.6   188      3.9   698.0    0.00       0    999.0    -0.6
 247    2:10   39.4    44    2.8   197      5.4   698.0    0.00       0    999.0    -0.5
 247    2:20   39.6    43    2.2   158      5.1   698.0    0.00       0    999.0    -0.8
 247    2:30   36.8    48    0.8   147      3.1   698.0    0.00       0    999.0    -0.7
 247    2:40   35.6    48    1.5   225      5.6   697.9    0.00       0    999.0    -0.6
 247    2:50   36.0    47    1.3   186      3.9   697.8    0.00       0    999.0    -0.6
 247    3:00   37.4    45    2.8   161      5.8   697.7    0.00       0    999.0    -0.4
 247    3:10   38.5    43    2.4   157      5.3   697.7    0.00       0    999.0    -0.6
 247    3:20   38.2    43    1.9   179      5.3   697.7    0.00       0    999.0    -0.5
 247    3:30   38.2    42    1.6   188      4.5   697.7    0.00       0    999.0    -0.5
 247    3:40   37.8    42    1.1   152      3.7   697.7    0.00       0    999.0    -0.7
 247    3:50   36.8    44    1.0   177      3.3   697.7    0.00       0    999.0    -0.7
 247    4:00   37.6    45    4.0   227      7.2   697.7    0.00       0    999.0    -0.4
 247    4:10   38.1    44    2.0   219      5.2   697.7    0.00       0    999.0    -0.5
 247    4:20   37.3    46    2.0   215      4.7   697.7    0.00       0    999.0    -0.5
 247    4:30   37.6    46    2.4   146      4.8   697.6    0.00       0    999.0    -0.5
 247    4:40   38.1    44    2.5   204      6.9   697.7    0.00       0    999.0    -0.4
 247    4:50   38.0    42    2.4   174      5.9   697.8    0.00       0    999.0    -0.5
 247    5:00   37.4    42    2.0   155      4.7   697.8    0.00       0    999.0    -0.6
 247    5:10   37.4    41    1.0   196      3.5   697.7    0.00       0    999.0    -0.6
 247    5:20   36.8    42    0.8   195      3.0   697.7    0.00       1    999.0    -0.6
 247    5:30   36.7    42    1.7   225      5.0   697.8    0.00       3    999.0    -0.6
 247    5:40   36.4    44    1.6   214      5.9   697.7    0.00       7    999.0    -0.5
 247    5:50   35.7    45    1.0   230      4.0   697.7    0.00      10    999.0    -0.6
 247    6:00   36.1    45    1.2   179      3.4   697.8    0.00      13    999.0    -0.5
 247    6:10   37.3    44    2.2   201      4.5   697.7    0.00      15    999.0    -0.5
 247    6:20   38.7    41    1.7   197      6.4   697.9    0.00      17    999.0    -0.5
 247    6:30   39.5    40    0.9   170      4.2   697.9    0.00      18    999.0    -0.4
 247    6:40   40.0    39    1.1    84      4.8   697.9    0.00      19    999.0    -0.4
 247    6:50   40.5    36    2.5   219      7.2   698.0    0.00      21    999.0    -0.4
 247    7:00   41.1    35    2.2   226      7.0   698.0    0.00      81    999.0    -0.4
 247    7:10   44.0    32    3.5   223     10.2   698.2    0.00     310    999.0    -0.5
 247    7:20   45.9    30    2.6   174      7.0   698.1    0.00     343    999.0    -0.6
 247    7:30   46.9    28    2.6   199      8.0   698.1    0.00     377    999.0    -0.7
 247    7:40   47.4    28    3.3   177     10.1   698.0    0.00     409    999.0    -0.7
 247    7:50   47.4    28    4.0   198     11.6   698.1    0.00     442    999.0    -0.7
 247    8:00   48.0    27    3.9   168      9.3   698.0    0.00     474    999.0    -0.7
 247    8:10   48.5    27    3.7   200     14.0   698.2    0.00     505    999.0    -0.7
 247    8:20   48.4    26    5.4   224     12.0   698.2    0.00     535    999.0    -0.7
 247    8:30   49.1    26    3.8   208     10.4   698.3    0.00     565    999.0    -0.7
 247    8:40   50.0    25    3.4   212     11.3   698.3    0.00     593    999.0    -0.6
 247    8:50   50.1    25    4.8   225      9.9   698.3    0.00     621    999.0    -0.7

Return to Crooked Creek Research Lab graphs page.


Western Regional Climate Center,wrcc@dri.edu